Vertical_Velocity
-2 -4 -4 -1 -3 -1 14 -1 5 23 3 -0 3 1 2 2 -3 -1 2 2 1 -1 2 2 3 2 -0 0 -1 1 -0 -1 -0 0 1 1 -0 -2 -1 -0 -3 -0 0 -2 -2 -3 -3
-5 -3 -3 -5 2 -0 13 -3 -2 5 20 4 1 -1 -0 -2 -1 -1 -1 0 0 0 1 1 -1 -2 0 2 -1 -0 1 -0 -0 -1 -2 -1 -2 -3 -3 -3 -0 1 -2 -2 -1 -3 -2
-3 -5 -4 -3 -3 -3 3 7 0 1 2 1 -4 -1 0 -5 -5 -1 -0 -1 0 -1 -1 -1 -1 -0 -0 1 -1 -2 -1 -1 -1 -2 -3 -2 -3 -1 -1 -3 -2 -3 -3 -4 -1 -3 -3
-4 -7 -6 -3 -6 -4 1 -0 1 -1 0 1 -1 -2 -6 -5 -0 2 0 -0 1 1 1 1 1 -2 -2 -3 -2 -2 -3 -3 -2 -2 -2 -2 -2 -2 -1 -5 -2 -4 -4 -5 2 -3 -4
-3 -2 -6 -4 0 -1 -5 -1 -0 1 3 2 3 -0 -0 -3 -3 -3 -4 -2 -1 -0 1 1 -0 -2 2 -0 1 -0 -2 -2 -2 -2 -3 -2 -1 -3 -2 -3 -3 -2 -5 -0 -4 -3 -5
-1 -0 -3 -5 -3 1 3 1 1 -1 -0 -1 -0 2 -1 1 1 -2 -3 -4 -2 -0 -2 -6 -4 -0 2 -2 -0 -2 -2 -1 -3 -4 -3 -1 -3 -4 -3 -3 -1 -2 -4 -0 1 -2 -3
-1 0 -1 -2 -7 -6 -1 1 -1 -2 -0 -0 -2 -1 -1 -0 -1 1 0 -3 -2 -2 2 1 1 -1 -2 -2 -1 -1 -1 -3 -3 -1 -0 0 -1 -1 -0 -0 -0 0 -1 -4 -1 -6 -10
-1 -3 -1 0 -0 -5 -5 -5 -0 -2 -3 -2 -2 -2 -2 -1 -3 -2 1 1 1 -4 -2 -1 -2 -0 -0 -2 -2 -1 1 1 -1 -1 -0 1 -1 -0 -1 -2 -2 -3 -4 -7 -1 -3 -12
-1 0 -2 -1 -1 -0 -1 -4 -5 -1 0 -3 -3 -1 -2 -1 -1 0 -1 -2 -1 1 0 -3 -4 -2 -2 -0 -4 -3 -2 -3 -2 -2 -1 -2 -2 -3 -3 -2 -2 -3 -5 -4 -6 3 -5
-1 -2 -0 0 -0 -0 -1 -1 -1 -4 -4 -1 0 -3 -2 -0 -0 0 1 -0 -0 2 -1 -3 -1 -5 -4 -4 -2 -3 -4 -3 -3 -2 -2 -3 -3 -3 -4 -4 -4 -2 -4 -2 -1 -4 -3
-1 -0 -1 -1 -1 0 -0 1 -1 -0 -0 -3 -3 -3 -1 -1 -2 0 1 0 -1 1 -3 -1 -3 -2 -2 -3 -3 -2 -5 -6 -3 -4 -4 -4 -4 -4 -4 -4 -3 -4 0 -1 -1 -3 -3
-0 -0 -1 1 1 -0 -0 -1 -0 2 -1 0 -3 -3 -2 0 1 -0 0 -2 -1 -1 -4 -4 -2 0 -3 -0 -1 -0 -3 -3 -2 -1 -3 -3 -2 -2 -2 2 -3 -1 -1 -0 -2 -2 -3
-0 -0 0 0 -0 1 -1 0 2 -1 0 1 0 -1 -4 -3 -2 -2 0 -1 -2 -3 -1 -2 -1 -1 -0 -0 -0 1 -2 -1 -1 -1 2 1 0 -1 -0 -1 -2 -4 -2 -4 0 -1 -7
-3 -0 -1 -1 -1 0 1 -1 -2 1 1 -0 1 0 1 -0 -1 -0 -0 2 -2 -1 -2 -2 -1 0 -1 -2 -1 -1 -3 -5 -1 -3 0 1 1 -0 -2 -2 -3 -2 -3 -3 -3 -2 -3
-1 -2 -0 -1 -0 -0 -1 -0 1 -1 -1 1 -0 -1 -0 1 1 0 0 -2 1 1 -1 -2 -1 -1 -1 -1 -1 -0 0 -0 1 1 0 -1 -1 -2 -3 -0 -3 -2 -0 -1 -3 2 0
-2 -2 -1 -0 -1 -1 -0 1 -2 0 2 1 -0 2 -1 -1 0 2 2 0 -1 -2 -1 1 0 0 0 0 0 -1 -1 -0 0 1 1 2 1 -2 -1 -4 -3 -2 -2 -4 1 -7 -6
-1 -2 -3 -2 -1 1 1 -0 0 0 -2 1 2 1 1 1 0 -0 -0 1 2 2 2 0 -1 -0 1 1 1 2 2 1 0 0 -1 -2 -2 -1 -1 0 -1 -2 -3 -1 -0 2 -9
-3 -3 -0 -1 -2 -2 -1 1 0 -0 0 -2 -1 1 -1 1 -0 1 1 -1 -0 0 2 3 3 1 1 0 -1 -0 -0 -0 -0 -1 -1 -1 -1 -2 -2 -0 1 -1 -2 -1 -2 0 -2
-1 -0 -2 -2 -1 -1 -2 -2 -1 -0 -0 0 -1 0 1 -1 -1 -0 -0 2 2 0 -1 -0 2 3 2 0 -1 0 0 -1 -1 -0 -0 -0 0 -0 -0 -1 0 -1 -0 -0 0 -0 1
-0 -2 -1 -1 -1 -0 -0 -2 -2 -1 -0 -1 -1 0 -0 -1 -1 -1 -1 -2 -1 -1 -1 0 -1 -1 0 0 1 2 1 -0 -0 -0 -1 -1 -1 0 0 0 1 -0 -0 -0 -0 0 1
-1 -2 -1 -1 1 1 -1 2 -0 -0 -2 -2 -0 -1 1 -1 -1 0 -0 -0 -1 -1 -0 -0 -1 0 -0 -1 1 0 0 1 1 -0 -0 -1 -2 -0 -2 1 2 0 -2 1 -1 -3 1
-1 -1 -1 -3 -3 -1 -0 -1 -1 -1 1 1 -0 -1 -1 -3 -1 -0 -1 -0 1 -0 -0 -1 -1 0 -1 -0 -2 -0 1 1 -0 -1 1 0 2 1 1 -3 -2 0 -2 -3 -2 -4 2
0 0 -1 -0 -2 -2 -0 -1 -1 -2 -1 -1 -0 -2 -2 -1 -1 -2 -3 -2 -0 -1 1 0 -0 -2 -2 -1 0 -0 -1 -2 1 1 -2 1 -2 -0 9 -1 -0 1 -2 -3 -0 -3 -1
-1 -1 -0 0 0 -2 -2 0 -1 -1 -2 -2 -2 -1 -2 -0 -0 -1 -2 -1 -1 -2 -1 -1 -1 0 1 -1 -2 -2 -2 -1 -1 0 -0 2 -1 -2 3 -2 2 -1 -2 -0 -2 2 -1
1 2 -1 -2 0 1 0 -2 -2 1 2 3 -1 -4 -4 -3 -2 -2 -1 -1 -0 0 -2 -3 -2 -0 -2 -2 -1 -0 -3 -2 -1 -1 -0 -1 -2 -3 -3 -0 3 -2 -2 -1 -2 -6 1
0 2 3 1 -1 -0 1 1 2 -1 -1 -1 1 4 2 -2 1 -3 -2 -1 -1 -1 -2 -0 -1 -0 -2 -2 -3 -1 3 2 -1 2 -1 -2 0 -1 -0 -2 -6 -1 1 -3 -2 -0 -4
-1 -0 0 1 2 0 -1 -1 -2 0 1 1 -0 -2 0 0 1 1 -1 -4 -1 -0 -3 1 -3 -3 -4 1 -1 -2 0 -0 0 2 0 -0 -3 -0 -3 -3 7 0 -2 -3 -2 -1 0
-1 -1 -0 -1 -0 0 -0 1 -0 -2 -1 -0 1 0 -0 -0 -2 1 -0 -0 -3 0 -3 -4 -3 -2 -3 -2 -2 -2 -1 -0 2 1 -3 -2 -9 5 -1 0 -2 0 -3 -5 -1 4 -0
-4 -2 -1 -1 -0 1 -1 -1 0 0 1 1 -1 -2 -2 -1 0 -4 3 1 3 -1 -2 -1 -2 -3 -1 -3 1 -1 -1 1 1 3 -2 -5 -3 -2 0 7 -9 -9 1 -1 -2 2 2
Height
5695 5680 5674 5667 5662 5657 5650 5647 5642 5641 5649 5657 5664 5676 5685 5693 5701 5712 5723 5732 5740 5749 5757 5766 5774 5782 5789 5797 5803 5808 5814 5819 5825 5829 5834 5838 5842 5845 5847 5849 5851 5852 5853 5854 5854 5855 5854
5708 5691 5684 5678 5671 5668 5665 5662 5661 5662 5667 5672 5678 5685 5692 5698 5705 5715 5725 5734 5742 5751 5758 5766 5773 5781 5788 5796 5801 5806 5812 5818 5823 5827 5831 5835 5838 5841 5844 5845 5847 5848 5848 5848 5848 5847 5847
5720 5707 5696 5691 5685 5680 5678 5677 5676 5677 5679 5683 5688 5693 5699 5704 5709 5718 5727 5735 5743 5751 5758 5766 5773 5781 5787 5795 5800 5805 5810 5815 5820 5824 5828 5831 5834 5837 5839 5840 5841 5842 5842 5841 5841 5839 5838
5731 5722 5710 5704 5698 5694 5691 5688 5686 5687 5688 5689 5693 5697 5703 5709 5714 5720 5728 5735 5743 5751 5758 5765 5772 5779 5786 5792 5798 5804 5809 5813 5817 5821 5825 5828 5830 5833 5834 5835 5836 5836 5836 5835 5834 5832 5831
5742 5734 5727 5718 5712 5707 5703 5700 5699 5697 5696 5697 5698 5702 5705 5711 5717 5724 5732 5738 5745 5752 5759 5766 5772 5778 5784 5790 5796 5801 5806 5810 5814 5818 5821 5823 5826 5828 5829 5829 5830 5830 5829 5828 5826 5824 5822
5752 5745 5738 5732 5725 5719 5716 5712 5709 5708 5707 5706 5705 5705 5709 5713 5719 5726 5734 5741 5747 5753 5760 5766 5772 5780 5784 5789 5794 5798 5802 5807 5811 5814 5818 5820 5822 5823 5824 5824 5824 5823 5821 5820 5817 5817 5814
5762 5755 5749 5743 5738 5733 5727 5723 5720 5718 5717 5716 5715 5716 5717 5719 5722 5727 5734 5741 5750 5756 5761 5767 5773 5778 5782 5787 5791 5795 5800 5803 5807 5810 5812 5814 5816 5816 5817 5817 5817 5816 5815 5813 5810 5807 5805
5771 5764 5759 5754 5749 5745 5740 5735 5731 5728 5726 5725 5725 5725 5726 5728 5730 5732 5737 5742 5749 5756 5760 5766 5770 5776 5780 5784 5789 5792 5796 5800 5803 5805 5807 5810 5810 5812 5812 5812 5812 5810 5808 5805 5802 5797 5794
5780 5774 5768 5763 5759 5754 5751 5748 5743 5739 5737 5735 5734 5733 5734 5736 5737 5739 5741 5745 5750 5754 5761 5765 5770 5775 5780 5784 5788 5791 5795 5797 5800 5802 5804 5806 5807 5808 5808 5807 5806 5803 5800 5796 5793 5788 5782
5788 5783 5778 5773 5768 5764 5760 5757 5754 5752 5748 5745 5744 5743 5742 5742 5744 5745 5748 5750 5752 5756 5760 5766 5770 5774 5779 5783 5787 5790 5792 5796 5798 5800 5801 5802 5803 5803 5802 5801 5799 5795 5791 5786 5783 5780 5776
5795 5791 5786 5782 5778 5774 5770 5766 5763 5760 5758 5756 5754 5753 5751 5750 5751 5752 5754 5754 5756 5758 5762 5767 5769 5772 5776 5782 5784 5787 5789 5791 5793 5795 5797 5798 5797 5797 5796 5794 5790 5789 5786 5783 5779 5776 5773
5802 5797 5793 5790 5786 5783 5779 5775 5772 5769 5767 5765 5764 5762 5761 5760 5759 5758 5758 5758 5760 5763 5764 5767 5770 5773 5776 5778 5781 5783 5784 5785 5787 5789 5789 5790 5791 5792 5790 5789 5788 5786 5783 5781 5777 5773 5770
5809 5805 5801 5797 5793 5790 5787 5784 5780 5777 5775 5773 5771 5770 5769 5768 5768 5766 5765 5765 5764 5764 5768 5771 5773 5775 5777 5779 5781 5781 5781 5781 5783 5785 5786 5787 5787 5789 5788 5787 5786 5784 5781 5779 5776 5771 5766
5816 5812 5809 5805 5801 5797 5793 5791 5789 5785 5782 5780 5779 5776 5775 5774 5774 5774 5773 5774 5773 5773 5773 5775 5776 5778 5779 5781 5782 5782 5783 5784 5784 5785 5785 5786 5787 5787 5786 5785 5784 5781 5779 5775 5771 5767 5763
5822 5818 5816 5812 5808 5804 5801 5797 5794 5793 5791 5787 5786 5784 5782 5780 5779 5779 5780 5780 5779 5778 5779 5780 5781 5782 5782 5783 5784 5784 5784 5784 5784 5785 5786 5786 5786 5785 5784 5783 5782 5779 5776 5773 5769 5766 5762
5827 5824 5821 5818 5815 5812 5809 5805 5802 5799 5796 5795 5793 5791 5789 5787 5786 5785 5785 5784 5784 5784 5783 5783 5784 5784 5785 5785 5786 5786 5786 5786 5785 5785 5785 5785 5785 5784 5782 5781 5780 5776 5774 5772 5767 5762 5757
5830 5828 5826 5823 5820 5817 5814 5812 5808 5805 5803 5800 5798 5797 5795 5793 5792 5792 5790 5788 5787 5787 5787 5787 5786 5786 5786 5786 5786 5786 5787 5786 5785 5785 5784 5783 5783 5783 5780 5778 5776 5773 5770 5767 5764 5759 5753
5831 5830 5828 5826 5824 5822 5819 5816 5814 5811 5808 5806 5804 5803 5800 5798 5797 5795 5794 5793 5792 5790 5789 5788 5788 5788 5787 5786 5786 5785 5785 5784 5783 5783 5782 5781 5780 5778 5777 5774 5772 5769 5765 5762 5759 5756 5750
5831 5830 5828 5827 5825 5824 5821 5820 5817 5815 5812 5810 5807 5806 5803 5802 5800 5798 5797 5795 5794 5793 5792 5791 5789 5788 5787 5786 5786 5784 5783 5782 5781 5780 5779 5778 5777 5775 5773 5772 5769 5765 5762 5759 5755 5751 5747
5829 5828 5827 5826 5825 5824 5822 5821 5819 5816 5814 5813 5811 5809 5806 5804 5802 5800 5798 5797 5795 5794 5792 5791 5790 5789 5787 5786 5785 5783 5782 5781 5779 5777 5776 5774 5773 5771 5770 5767 5765 5761 5758 5755 5751 5748 5745
5826 5826 5825 5824 5822 5822 5821 5819 5818 5817 5815 5813 5812 5810 5807 5805 5803 5801 5799 5797 5795 5793 5792 5790 5789 5787 5786 5784 5782 5781 5780 5778 5776 5774 5772 5771 5768 5767 5763 5762 5760 5757 5753 5750 5747 5744 5741
5821 5820 5820 5820 5819 5818 5818 5817 5816 5814 5813 5812 5810 5809 5807 5805 5803 5801 5798 5796 5794 5792 5790 5788 5786 5784 5783 5781 5779 5777 5775 5773 5771 5769 5767 5765 5764 5762 5759 5755 5754 5751 5747 5744 5741 5738 5736
5814 5815 5814 5814 5813 5813 5812 5811 5811 5810 5809 5808 5807 5805 5804 5802 5800 5799 5797 5794 5791 5789 5787 5784 5782 5780 5778 5776 5774 5772 5770 5767 5766 5763 5761 5759 5756 5755 5755 5750 5748 5746 5741 5738 5734 5730 5728
5806 5807 5807 5807 5807 5806 5806 5805 5805 5804 5803 5803 5802 5801 5800 5798 5795 5794 5792 5790 5788 5785 5782 5780 5777 5775 5773 5770 5767 5765 5762 5761 5758 5756 5753 5752 5749 5747 5748 5743 5742 5738 5733 5730 5726 5721 5719
5795 5797 5798 5799 5799 5799 5798 5798 5798 5798 5797 5795 5794 5794 5793 5792 5790 5788 5786 5784 5782 5780 5777 5775 5772 5769 5766 5763 5760 5758 5755 5752 5750 5748 5746 5743 5740 5737 5736 5735 5734 5729 5723 5721 5718 5714 5712
5784 5786 5787 5788 5789 5790 5790 5789 5789 5788 5789 5789 5788 5786 5784 5784 5783 5781 5779 5778 5775 5773 5771 5767 5764 5761 5757 5753 5751 5748 5746 5744 5742 5740 5738 5735 5731 5729 5725 5723 5723 5720 5716 5711 5706 5705 5703
5772 5774 5775 5776 5777 5778 5779 5779 5778 5778 5778 5778 5778 5777 5777 5775 5774 5772 5770 5769 5768 5764 5762 5759 5756 5752 5749 5744 5741 5739 5737 5734 5732 5730 5729 5725 5721 5720 5715 5712 5716 5708 5704 5702 5700 5700 5695
5760 5761 5762 5764 5765 5766 5766 5768 5767 5767 5767 5766 5765 5765 5765 5765 5763 5761 5760 5758 5759 5756 5753 5751 5747 5745 5741 5736 5732 5728 5726 5724 5722 5721 5718 5715 5711 5711 5707 5704 5702 5697 5696 5693 5690 5687 5682
5746 5748 5750 5752 5753 5753 5754 5755 5756 5756 5755 5755 5754 5752 5752 5753 5754 5749 5748 5747 5747 5745 5744 5742 5739 5731 5730 5725 5723 5719 5716 5714 5711 5711 5707 5706 5705 5698 5700 5698 5689 5683 5685 5681 5677 5677 5673